Location: Fernhill
(41.0167°S, 175.6333°E)
Time: 06:40:45
(UTC+00:00)

S3M - Pass Details

Date: 08 November 2025
Orbit: 948 x 1003 km, 83.0° (Epoch: 11 December)

Event Time Altitude Azimuth Distance (km) Brightness Sun altitude
Rises 10:39:45 0° 188° (S) 3,661 8.1 -29.3°
Reaches altitude 10° 10:42:15 10° 188° (S) 2,712 7.2 -29.4°
Enters shadow 10:48:25 87° 237° (WSW) 975 3.9 -29.9°
